Language: 


Des rapports , des résumés tant et plus, au choix de chacun....


Données Historiques de Météogheer
Journalier Rapport pour Avril 16, 2017 Unitée:  Impériale    Métrique   Les deux
Suivant Jour »
Journalier Hebdomadaire Mensuel Annuel Sur mesure
  Max: Min: Moyenne:
Température: 63.1 °F 32 °F 50 °F
Point de rosée: 46.6 °F 35.4 °F 38.3 °F
Humidité: 90% 0% 43%
Vent: 12.8mph 0mph 5.1mph
Rafales: 14.8mph - -
Vent- - WNW
Pression: 30.2 in 0 in -
Pluie: 0 in    
Historical Graphs
 
 
Données tabulaires pour Avril 16, 2017
Heure Température Point de rosée Pression Vent Vent Rafales Humidité Pluie Taux (Horaire) Conditions
00:20 57.4 °F 36.9 °F 30 in North 2.9 mph 9.8 mph 46% 0 in
00:25 57.4 °F 36.9 °F 30 in North 2.9 mph 9.8 mph 46% 0 in
00:30 57.4 °F 36.9 °F 30 in North 2.9 mph 9.8 mph 46% 0 in
00:49 44.2 °F 35.8 °F 0 in Calm     72% 0 in
00:54 43.9 °F 35.4 °F 30.1 in Calm   3.4 mph 72% 0 in
01:00 32 °F 36.7 °F 0 in Calm     0% 0 in
01:05 32 °F 36.7 °F 0 in Calm     0% 0 in
01:10 32 °F 36.7 °F 0 in Calm     0% 0 in
01:15 32 °F 36.7 °F 0 in Calm     0% 0 in
01:20 32 °F 36.7 °F 0 in Calm     0% 0 in
01:25 32 °F 36.7 °F 0 in Calm     0% 0 in
01:30 32 °F 36.7 °F 0 in Calm     0% 0 in
01:35 32 °F 36.7 °F 0 in Calm     0% 0 in
01:40 32 °F 36.7 °F 0 in Calm     0% 0 in
01:45 32 °F 36.7 °F 0 in Calm     0% 0 in
01:50 32 °F 36.7 °F 0 in Calm     0% 0 in
01:55 32 °F 36.7 °F 0 in Calm     0% 0 in
02:00 32 °F 36.7 °F 0 in Calm     0% 0 in
02:05 32 °F 36.7 °F 0 in Calm     0% 0 in
02:07 32 °F 36.7 °F 0 in Calm     0% 0 in
02:12 32 °F 36.7 °F 0 in Calm     0% 0 in
07:30 32 °F 36.7 °F 0 in Calm     0% 0 in
07:35 32 °F 36.7 °F 0 in Calm     0% 0 in
07:40 32 °F 36.7 °F 0 in Calm     0% 0 in
08:21 32 °F 38.3 °F 0 in Calm     0% 0 in
08:26 43.5 °F 40.8 °F 30.2 in West 4.9 mph 7.4 mph 90% 0 in
08:36 32 °F 41 °F 0 in WSW 6.5 mph 6.5 mph 0% 0 in
08:41 44.8 °F 42.1 °F 30.1 in West 6.9 mph 8.9 mph 90% 0 in
08:46 45.3 °F 42.3 °F 30.1 in WSW 6.3 mph 8.9 mph 89% 0 in
08:51 45.9 °F 42.8 °F 30.1 in West 6 mph 8.1 mph 89% 0 in
08:56 46.2 °F 43.2 °F 30.1 in WSW 7.8 mph 8.5 mph 89% 0 in
09:02 46.6 °F 43.2 °F 30.1 in West 6 mph 8.5 mph 88% 0 in
09:07 46.9 °F 43.5 °F 30.2 in WSW 5.6 mph 7.6 mph 88% 0 in
09:12 47.5 °F 44.1 °F 30.2 in West 7.6 mph 8.5 mph 88% 0 in
09:17 48.2 °F 44.4 °F 30.2 in SSW 8.7 mph 9.6 mph 87% 0 in
09:22 48.7 °F 44.8 °F 30.2 in West 6.3 mph 9.6 mph 86% 0 in
09:27 49.1 °F 45.1 °F 30.2 in NW 4.3 mph 8.5 mph 86% 0 in
09:32 49.5 °F 45.1 °F 30.2 in West 2.9 mph 8.5 mph 85% 0 in
09:37 50.5 °F 45.9 °F 30.2 in NW 2.2 mph 7.4 mph 84% 0 in
09:42 51.3 °F 46.2 °F 30.2 in NW 5.6 mph 7.4 mph 83% 0 in
09:47 52.2 °F 46.6 °F 30.2 in WNW 4.9 mph 7.8 mph 81% 0 in
09:52 52.3 °F 45.3 °F 30.2 in North 4.3 mph 8.1 mph 77% 0 in
09:57 53.1 °F 45.3 °F 30.2 in NNW 3.6 mph 8.1 mph 75% 0 in
10:02 53.6 °F 44.8 °F 30.2 in West 2 mph 12.1 mph 72% 0 in
10:07 53.8 °F 43.5 °F 30.2 in SSW 5.8 mph 12.1 mph 68% 0 in
10:12 53.4 °F 42.6 °F 30.2 in NNW 7.8 mph 10.5 mph 67% 0 in
10:17 53.2 °F 42.6 °F 30.2 in WNW 7.2 mph 10.5 mph 67% 0 in
10:22 53.1 °F 41.5 °F 30.2 in WNW 2 mph 13 mph 65% 0 in
10:27 53.1 °F 41.2 °F 30.2 in NW 3.6 mph 13 mph 64% 0 in
10:32 53.2 °F 41 °F 30.2 in WNW 3.4 mph 10.5 mph 63% 0 in
10:37 53.1 °F 40.5 °F 30.2 in NNW 5.8 mph 10.7 mph 62% 0 in
10:42 53.1 °F 39.9 °F 30.2 in West 7.4 mph 7.4 mph 61% 0 in
10:47 52.7 °F 37.4 °F 30.2 in NNE 7.6 mph 11 mph 56% 0 in
10:52 52.7 °F 36.5 °F 30.1 in WNW 4 mph 11 mph 54% 0 in
10:57 53.4 °F 37.6 °F 30.1 in WSW 3.4 mph 10.1 mph 55% 0 in
11:02 54 °F 37.8 °F 30.1 in WNW 6.5 mph 10.5 mph 54% 0 in
11:07 54.5 °F 37.8 °F 30.2 in NNW 7.6 mph 10.5 mph 53% 0 in
11:12 55.6 °F 38.7 °F 30.2 in NW 3.8 mph 10.5 mph 53% 0 in
11:17 55.2 °F 37.9 °F 30.2 in NW 6.5 mph 13 mph 52% 0 in
11:22 55 °F 37.2 °F 30.2 in West 6.5 mph 13 mph 51% 0 in
11:27 55.2 °F 37.4 °F 30.2 in West 6 mph 11 mph 51% 0 in
11:32 55.6 °F 37.2 °F 30.2 in WSW 9.8 mph 13 mph 50% 0 in
11:37 56.5 °F 38.1 °F 30.2 in NNW 11 mph 13 mph 50% 0 in
11:42 56.7 °F 37.2 °F 30.2 in West 5.4 mph 11.4 mph 48% 0 in
11:47 56.8 °F 37.2 °F 30.2 in WNW 8.5 mph 12.8 mph 48% 0 in
11:53 56.8 °F 37.2 °F 30.2 in West 4.9 mph 12.8 mph 48% 0 in
11:58 56.3 °F 36.9 °F 30.2 in WNW 11.4 mph 12.1 mph 48% 0 in
12:03 56.3 °F 36.9 °F 30.2 in WNW 6 mph 12.5 mph 48% 0 in
12:08 56.1 °F 36.7 °F 30.2 in West 4.3 mph 12.5 mph 48% 0 in
12:13 55.9 °F 36.5 °F 30.2 in NNW 6.3 mph 10.3 mph 48% 0 in
12:18 56.1 °F 36.1 °F 30.2 in SSW 7.6 mph 13.2 mph 47% 0 in
12:23 55.9 °F 36.5 °F 30.2 in West 9.6 mph 13.2 mph 48% 0 in
12:28 56.1 °F 36.7 °F 30.2 in North 4.9 mph 10.5 mph 48% 0 in
12:33 56.3 °F 36.9 °F 30.2 in NW 7.8 mph 13 mph 48% 0 in
12:38 56.8 °F 37.2 °F 30.2 in North 7.2 mph 13 mph 48% 0 in
12:43 56.7 °F 36.7 °F 30.2 in ENE 6.3 mph 10.7 mph 47% 0 in
12:48 56.7 °F 36.7 °F 30.2 in WNW 6.7 mph 10.7 mph 47% 0 in
12:53 57 °F 37 °F 30.2 in West 5.4 mph 12.5 mph 47% 0 in
12:58 56.8 °F 36.3 °F 30.2 in WSW 6 mph 14.8 mph 46% 0 in
13:03 57.4 °F 36.1 °F 30.2 in NW 6.3 mph 14.8 mph 45% 0 in
13:08 57.6 °F 36.9 °F 30.2 in North 8.7 mph 12.1 mph 46% 0 in
13:13 57.6 °F 36.9 °F 30.2 in NNE 7.6 mph 11.4 mph 46% 0 in
13:18 57 °F 36 °F 30.2 in NNW 4.7 mph 11.4 mph 45% 0 in
13:23 57.7 °F 36.5 °F 30.2 in WNW 6.3 mph 9.2 mph 45% 0 in
13:28 59.5 °F 38.1 °F 30.2 in SW 3.8 mph 10.5 mph 45% 0 in
13:33 32 °F 37.4 °F 30.2 in NW 12.5 mph 12.5 mph 0% 0 in
13:38 59.7 °F 37.8 °F 30.2 in NW 6 mph 14.5 mph 44% 0 in
13:43 59.7 °F 37.8 °F 30.2 in West 10.5 mph 14.5 mph 44% 0 in
13:49 60.4 °F 38.5 °F 30.2 in WSW 10.7 mph 14.5 mph 44% 0 in
13:56 32 °F 37.4 °F 0 in West 10.3 mph 12.1 mph 0% 0 in
14:01 59.5 °F 35.8 °F 30.1 in WSW 4.9 mph 10.3 mph 41% 0 in
14:06 59.7 °F 36 °F 30.2 in WNW 6.3 mph 10.5 mph 41% 0 in
14:11 60.3 °F 37 °F 30.2 in West 5.8 mph 13.2 mph 42% 0 in
14:16 60.8 °F 36.9 °F 30.2 in NNW 5.6 mph 13.2 mph 41% 0 in
14:21 59.7 °F 36 °F 30.1 in West 12.1 mph 13 mph 41% 0 in
14:27 60.1 °F 36.3 °F 30.1 in North 4.9 mph 13 mph 41% 0 in
14:32 61 °F 37 °F 30.1 in North 4.3 mph 12.3 mph 41% 0 in
14:37 61.2 °F 36.7 °F 30.2 in North 12.8 mph 12.8 mph 40% 0 in
14:42 61.3 °F 36.9 °F 30.2 in West 5.4 mph 12.8 mph 40% 0 in
14:47 60.4 °F 36 °F 30.2 in WNW 6.5 mph 10.5 mph 40% 0 in
14:52 60.8 °F 36.3 °F 30.1 in NNW 6 mph 10.5 mph 40% 0 in
14:57 61.2 °F 36 °F 30.1 in WNW 8.7 mph 9.4 mph 39% 0 in
15:02 61 °F 35.8 °F 30.1 in NNW 7.4 mph 9.4 mph 39% 0 in
15:07 61.7 °F 36.5 °F 30.1 in NW 10.5 mph 10.5 mph 39% 0 in
15:12 61.7 °F 36.5 °F 30.1 in WNW 8.1 mph 12.1 mph 39% 0 in
15:18 32 °F 36.5 °F 0 in Calm     0% 0 in
15:23 32 °F 36.5 °F 0 in West 9.6 mph 9.8 mph 0% 0 in
15:28 62.2 °F 37 °F 30.1 in NNW 3.8 mph 13.9 mph 39% 0 in
15:33 63.1 °F 37.8 °F 30.1 in WNW 6 mph 10.3 mph 39% 0 in
15:38 62.6 °F 37.2 °F 30.2 in WSW 6.5 mph 12.8 mph 39% 0 in
15:43 32 °F 36.3 °F 30.2 in NE 7.4 mph 8.5 mph 0% 0 in
15:48 61.7 °F 37 °F 30.2 in WNW 4.3 mph 9.8 mph 40% 0 in
15:53 61.7 °F 36.5 °F 30.2 in NNW 7.2 mph 9.8 mph 39% 0 in
15:58 61.2 °F 36 °F 30.2 in WNW 3.4 mph 12.3 mph 39% 0 in
16:03 61.9 °F 37.2 °F 30.2 in North 6.5 mph 12.3 mph 40% 0 in
18:16 32 °F 36.5 °F 0 in NNW 6.3 mph 6.3 mph 0% 0 in
18:21 56.1 °F 36.1 °F 30.1 in WSW 4.9 mph 6.3 mph 47% 0 in
18:26 55.9 °F 36 °F 30.1 in WSW 2.5 mph 7.6 mph 47% 0 in
18:47 32 °F 35.8 °F 0 in WNW 4.9 mph 4.9 mph 0% 0 in
18:52 54.9 °F 36.7 °F 30.1 in WNW 6 mph 6.5 mph 50% 0 in
Données Historique de Météo Turbie

Mise a jour : 23/06/2018 08:00:21
Généré par Cumulus 1.9.4 (1099)